Location: ????????
(60.4333°N, 46.4710°E)
Time: 03:59:24
(UTC+00:00)

Cosmos 2237 Rocket - Pass Details

Date: 25 November 2020
Orbit: 833 x 851 km, 71.0° (Epoch: 19 January)

Event Time Altitude Azimuth Distance (km) Brightness Sun altitude
Rises 14:04:56 0° 185° (S) 3,374 5.6 -13.7°
Reaches altitude 10° 14:07:31 10° 177° (S) 2,445 4.8 -14.0°
Maximum altitude 14:12:34 36° 112° (ESE) 1,297 2.8 -14.6°
Enters shadow 14:15:30 22° 62° (ENE) 1,769 3.3 -15.0°
